Vero Beach, FL

9:19 PM EDT on April 23, 2018 (GMT -0400)
Vero Beach Municipal

Weather History for KVRB - January, 2014

Change the Weather History Date:

Sunday, January 19, 2014

  Actual Average Record
Temperature  
Mean Temperature 50 °F 62 °F  
Max Temperature 70 °F 72 °F 88 °F (1943)
Min Temperature 30 °F 52 °F 29 °F (1977)
Degree Days  
Heating Degree Days 15 5  
Month to date heating degree days 108 95  
Since 1 July heating degree days 137 230  
Cooling Degree Days 0 2  
Month to date cooling degree days 53 38  
Year to date cooling degree days 53 38  
Growing Degree Days 1 (Base 50)    
Moisture  
Dew Point 38 °F    
Average Humidity 66    
Maximum Humidity 100    
Minimum Humidity 31    
Precipitation  
Precipitation 0.00 in 0.08 in 0.88 in (1954)
Month to date precipitation 3.12 1.52  
Year to date precipitation 3.12 1.52  
Sea Level Pressure  
Sea Level Pressure 30.19 in    
Wind  
Wind Speed 5 mph (West)    
Max Wind Speed 16 mph    
Max Gust Speed 22 mph    
Visibility 10 miles    
Events      
T = Trace of Precipitation, MM = Missing Value Source: NWS Daily Summary

Daily Weather History Graph

Daily Weather History Graph

Search for Another Location

Airport or City:

Astronomy

Jan. 19, 2014 Rise Set
Actual Time 7:12 AM EST 5:52 PM EST
Civil Twilight 6:47 AM EST 6:17 PM EST
Nautical Twilight 6:19 AM EST 6:45 PM EST
Astronomical Twilight 5:51 AM EST 7:13 PM EST
Moon 9:06 PM EST (1/19) 9:02 AM EST (1/19)
Length of Visible Light 11h 29m
Length of Day
10h 39m
Waning Gibbous, 89% of the Moon is Illuminated
Jan 19
Waning Gibbous
Jan 24
Last Quarter
Jan 30
New
Feb 6
First Quarter
Feb 14
Full

Hourly Weather History & Observations

Time (EST) Temp. Windchill Dew Point Humidity Pressure Visibility Wind Dir Wind Speed Gust Speed Precip Events Conditions
12:53 AM 37.9 °F 35.5 °F 28.0 °F 68% 30.21 in 10.0 mi WNW 3.5 mph - N/A   Clear
1:53 AM 36.0 °F 31.1 °F 28.9 °F 76% 30.21 in 10.0 mi WNW 5.8 mph - N/A   Clear
2:53 AM 36.0 °F 29.6 °F 30.9 °F 82% 30.20 in 10.0 mi WNW 8.1 mph - N/A   Clear
3:53 AM 36.0 °F - 30.9 °F 82% 30.20 in 10.0 mi Calm Calm - N/A   Clear
4:53 AM 33.1 °F 30.0 °F 28.9 °F 85% 30.20 in 10.0 mi West 3.5 mph - N/A   Clear
5:53 AM 36.0 °F 33.3 °F 30.9 °F 82% 30.21 in 10.0 mi WSW 3.5 mph - N/A   Clear
6:53 AM 33.1 °F - 30.0 °F 89% 30.22 in 10.0 mi Calm Calm - N/A   Clear
7:53 AM 34.0 °F - 33.1 °F 96% 30.24 in 10.0 mi Calm Calm - N/A   Clear
8:53 AM 44.1 °F - 37.0 °F 76% 30.26 in 10.0 mi Calm Calm - N/A   Clear
9:53 AM 53.1 °F - 39.0 °F 59% 30.26 in 10.0 mi West 6.9 mph - N/A   Clear
10:53 AM 57.9 °F - 37.9 °F 47% 30.26 in 10.0 mi WNW 11.5 mph - N/A   Clear
11:53 AM 62.1 °F - 37.9 °F 41% 30.24 in 10.0 mi WNW 9.2 mph - N/A   Clear
12:53 PM 64.9 °F - 36.0 °F 34% 30.21 in 10.0 mi WNW 12.7 mph - N/A   Clear
1:53 PM 66.0 °F - 35.1 °F 32% 30.15 in 10.0 mi SW 6.9 mph 16.1 mph N/A   Clear
2:53 PM 69.1 °F - 37.0 °F 31% 30.15 in 10.0 mi WNW 10.4 mph - N/A   Clear
3:53 PM 69.1 °F - 39.0 °F 33% 30.15 in 10.0 mi WNW 12.7 mph 19.6 mph N/A   Scattered Clouds
4:53 PM 66.0 °F - 42.1 °F 42% 30.14 in 10.0 mi WNW 8.1 mph - N/A   Scattered Clouds
5:53 PM 63.0 °F - 44.1 °F 50% 30.14 in 10.0 mi West 3.5 mph - N/A   Scattered Clouds
6:53 PM 57.0 °F - 46.0 °F 67% 30.15 in 10.0 mi Calm Calm - N/A   Mostly Cloudy
7:53 PM 52.0 °F - 46.0 °F 80% 30.16 in 10.0 mi Calm Calm - N/A   Partly Cloudy
8:53 PM 52.0 °F - 46.0 °F 80% 30.17 in 10.0 mi SSW 3.5 mph - N/A   Scattered Clouds
9:53 PM 57.0 °F - 46.9 °F 69% 30.17 in 10.0 mi SSW 3.5 mph - N/A   Overcast
10:53 PM 55.0 °F - 46.9 °F 74% 30.17 in 10.0 mi SSW 3.5 mph - N/A   Clear
11:53 PM 54.0 °F - 46.9 °F 77% 30.15 in 10.0 mi SW 5.8 mph - N/A   Partly Cloudy